{"data":{"norad_id":58955,"epoch":"2026-09-22T03:48:30.595680Z","epoch_age_seconds":109097,"freshness":"FRESH","line1":"1 58955U 24028A   26265.15868745  .00000056  00000+0  15043-3 0  9999","line2":"2 58955  39.9922 318.3737 0017790  74.8450 285.4263 13.70489066130370","mean_motion":13.70489066,"eccentricity":0.001779,"inclination_deg":39.9922,"raan_deg":318.3737,"arg_perigee_deg":74.845,"mean_anomaly_deg":285.4263,"bstar":0.00015043,"rev_number":13037,"period_min":105.07198019484,"perigee_km":984.69390739277,"apogee_km":1010.9375471965,"semimajor_km":7375.9527272946,"source":"CELESTRAK","updated_at":"2026-09-23T09:00:19.081381Z"}}